Location: Elk Horn Observatory
(36.6768°N, 80.8309°W)
Time: 13:56:18
(UTC-04:00)

Envisat - Pass Details

Date: 28 January 2019
Orbit: 764 x 766 km, 98.2° (Epoch: 22 April)

Event Time Altitude Azimuth Distance (km) Brightness Sun altitude
Rises 06:51:32 0° 30° (NNE) 3,238 6.4 -7.8°
Reaches altitude 10° 06:54:30 10° 48° (NE) 2,307 5.9 -7.2°
Maximum altitude 06:58:06 19° 93° (E) 1,744 6.1 -6.5°
Drops below altitude 10° 07:01:41 10° 139° (SE) 2,296 6.6 -5.9°
Sets 07:04:37 0° 156° (SSE) 3,217 6.9 -5.3°
